(45) Eugenia
ephemeris date magn radius delta ra dec elong phase
Today31 Aug 202513.52.943 AU3.022 AU05h25m+16°46'75.9°19.4°
Opposition13 Dec 202511.82.917 AU1.940 AU05h28m+14°09'170.9°3.1°
(45) Eugenia - 2025-08-31
astro.vanbuitenen.nl


 
-1 year
-1 month
-1 day
Now
+1 day
+1 month
+1 year

The interactive orbit chart above shows the body's path through the solar system and its position at the given date. Green and blue lines are shown perpendicular to the ecliptic plane: Green if the path is above the ecliptic plane, blue if it is below. (Left-click and drag to rotate the view; Right-click and drag to move the view; Use scroll wheel to zoom in our out.)

The orbital elements of Eugenia are:

            e (Eccentricity)                : 0.0827964
            a (Semimajor axis)              : 2.7200035
            i (Inclination)                 : 6.60546
            Ω (Longitude of ascending node) : 147.57873
            ω (Argument of perihelion)      : 87.32094
            M (Mean anomaly)                : 162.57569
            Epoch                           : 2025 May 05

            L (Longitude of perihelion)     : 234.88179
            B (Latitude of perihelion)      : 6.59821
            P (Orbital period in years)     : 4.49            
        

The light curve chart below shows the estimated development of the minor planet's magnitude.


The all-sky chart below shows the path of the minor planet over the same period as the light curve. The current position is marked yellow.





The following chart shows the path of the minor planet in the next few days. The field of view is optimized for (~10x50) binoculars and finderscopes. A more printer-friendly version of the same chart can be found below.




Ephemerides:
Date       Time       RA (2000)    DEC (2000)    delta   radius  elong  phase   PA    magn
2025-08-31 00:00 UT   05 25 34.9   +16 46 44     3.022    2.943   75.9   19.4   265   13.5 
2025-08-31 01:07 UT   05 25 37.8   +16 46 42     3.021    2.943   75.9   19.4   265   13.5 
2025-09-01 00:00 UT   05 26 36.8   +16 46 01     3.008    2.943   76.6   19.5   265   13.5 
2025-09-02 00:00 UT   05 27 37.9   +16 45 14     2.995    2.943   77.3   19.5   265   13.5 
2025-09-03 00:00 UT   05 28 38.2   +16 44 24     2.981    2.943   78.0   19.6   265   13.5 
2025-09-04 00:00 UT   05 29 37.8   +16 43 31     2.968    2.943   78.8   19.6   266   13.5 
2025-09-05 00:00 UT   05 30 36.6   +16 42 35     2.954    2.943   79.5   19.7   266   13.5 
2025-09-06 00:00 UT   05 31 34.6   +16 41 36     2.941    2.942   80.2   19.7   266   13.4 
2025-09-07 00:00 UT   05 32 31.8   +16 40 34     2.927    2.942   81.0   19.8   266   13.4 
2025-09-08 00:00 UT   05 33 28.2   +16 39 29     2.913    2.942   81.7   19.8   266   13.4 
2025-09-09 00:00 UT   05 34 23.7   +16 38 22     2.900    2.942   82.5   19.8   267   13.4 
2025-09-10 00:00 UT   05 35 18.4   +16 37 12     2.886    2.942   83.2   19.9   267   13.4 
2025-09-11 00:00 UT   05 36 12.2   +16 35 59     2.872    2.942   84.0   19.9   267   13.4 
2025-09-12 00:00 UT   05 37 05.1   +16 34 44     2.858    2.942   84.7   19.9   267   13.4 
2025-09-13 00:00 UT   05 37 57.1   +16 33 25     2.845    2.941   85.5   19.9   267   13.4 
2025-09-14 00:00 UT   05 38 48.2   +16 32 05     2.831    2.941   86.2   20.0   267   13.4 
2025-09-15 00:00 UT   05 39 38.4   +16 30 42     2.817    2.941   87.0   20.0   268   13.4 
2025-09-16 00:00 UT   05 40 27.6   +16 29 16     2.803    2.941   87.8   20.0   268   13.3 
2025-09-17 00:00 UT   05 41 15.9   +16 27 48     2.789    2.941   88.5   20.0   268   13.3 
2025-09-18 00:00 UT   05 42 03.2   +16 26 18     2.775    2.941   89.3   20.0   268   13.3 
2025-09-19 00:00 UT   05 42 49.4   +16 24 45     2.762    2.941   90.1   20.0   268   13.3 
2025-09-20 00:00 UT   05 43 34.7   +16 23 10     2.748    2.940   90.9   20.0   268   13.3 
2025-09-21 00:00 UT   05 44 18.9   +16 21 33     2.734    2.940   91.7   20.0   269   13.3 
2025-09-22 00:00 UT   05 45 02.0   +16 19 54     2.720    2.940   92.5   19.9   269   13.3 
2025-09-23 00:00 UT   05 45 44.1   +16 18 13     2.706    2.940   93.3   19.9   269   13.3 
2025-09-24 00:00 UT   05 46 25.1   +16 16 31     2.692    2.940   94.1   19.9   269   13.3 
2025-09-25 00:00 UT   05 47 05.0   +16 14 46     2.678    2.939   94.9   19.9   269   13.2 
2025-09-26 00:00 UT   05 47 43.8   +16 12 59     2.665    2.939   95.7   19.8   269   13.2 
2025-09-27 00:00 UT   05 48 21.4   +16 11 11     2.651    2.939   96.6   19.8   270   13.2 
2025-09-28 00:00 UT   05 48 57.9   +16 09 21     2.637    2.939   97.4   19.8   270   13.2 
2025-09-29 00:00 UT   05 49 33.3   +16 07 29     2.623    2.939   98.2   19.7   270   13.2 
2025-09-30 00:00 UT   05 50 07.5   +16 05 37     2.609    2.939   99.1   19.7   270   13.2 


    Terminology:
            
    delta:  distance between minor planet and earth in AU
    radius: distance between minor planet and sun in AU
    magn:   magnitude (brightness) estimate    
    ra:     right ascension in hours (24h = 360deg)
    dec:    declination in degrees
    elong:  elongation in degrees (angle sun-earth-minor planet)    
    phase:  phase angle in degrees (angle sun-minor planet-earth)        
    AU:     Astronomical Unit (mean distance between earth and sun: 149597870.7 km
    

Orbital elements provided by the MPC (Minor Planet Center).
Calculations by a modified version of AAPlus, a C# implementation of the AA+ project by PJ Naughter from the algorithms presented in the book "Astronomical Algorithms" by Jean Meeus.
NGC2000 dso catalog and star labels from VizieR as provided by the Strasbourg astronomical Data Center.
Tycho2 catalog from the ESO archive.